�N����,����,����,����,����,�C��,���x,�~����,���Ǝ���,�S�V����,�ő�u�ԕ���,,,
,,,,,,,,,,����,����,����,�N��
yyyy/mm/dd,hh:mm:ss,(16),16����,m/s,��,%,mm,min,KW/�u,(16),16����,m/s,Time
2012/1/1,1:00:00,293,���k��,2.7,-12,88.7,0,0,0.01,293,���k��,4.8,59
2012/1/1,2:00:00,293,���k��,3.2,-11.4,86.9,0,0,0.01,315,�k��,5.3,21
2012/1/1,3:00:00,293,���k��,3,-13.1,90.2,0,0,0.01,293,���k��,3.8,18
2012/1/1,4:00:00,293,���k��,3.3,-13.7,90.7,0,0,0.01,293,���k��,4.3,59
2012/1/1,5:00:00,293,���k��,2.3,-13.4,91.7,0,0,0.01,293,���k��,4.3,7
2012/1/1,6:00:00,293,���k��,2.1,-11.9,87.3,0,0,0.01,293,���k��,3.7,34
2012/1/1,7:00:00,293,���k��,1.9,-12.8,86.6,0,0,0.01,293,���k��,3.9,24
2012/1/1,8:00:00,315,�k��,1.6,-12.1,82.9,0,8,0.07,315,�k��,4.1,32
2012/1/1,9:00:00,293,���k��,1.3,-9.9,78,0,60,0.23,293,���k��,2.3,30
2012/1/1,10:00:00,293,���k��,1.7,-7.5,74,0,60,0.35,293,���k��,2.8,41
2012/1/1,11:00:00,248,�É�,0,-3.7,62.4,0,60,0.32,270,��,1.7,23
2012/1/1,12:00:00,45,�k��,0.8,-1.7,64.8,0,60,0.47,45,�k��,1.9,38
2012/1/1,13:00:00,23,�k�k��,0.6,-0.9,72.2,0,60,0.39,23,�k�k��,2.3,7
2012/1/1,14:00:00,68,���k��,0.4,-0.5,79.4,0,60,0.21,45,�k��,1.3,59
2012/1/1,15:00:00,45,�k��,0.9,-0.9,82.8,0,12,0.1,45,�k��,1.4,58
2012/1/1,16:00:00,315,�k��,2.5,-2.5,74.4,0,0,0.03,315,�k��,3.9,55
2012/1/1,17:00:00,315,�k��,2.6,-3,72.1,0,0,0.01,315,�k��,4,18
2012/1/1,18:00:00,315,�k��,1.7,-3.4,74.6,0,0,0.01,315,�k��,4.4,7
2012/1/1,19:00:00,315,�k��,2.9,-3.2,77.1,0,0,0.01,315,�k��,4.3,50
2012/1/1,20:00:00,315,�k��,2.3,-3.4,85.9,0,0,0.01,315,�k��,4.9,7
2012/1/1,21:00:00,315,�k��,1.7,-3.7,93.1,0,0,0.01,338,�k�k��,4,22
2012/1/1,22:00:00,315,�k��,3.2,-3.9,96.1,0,0,0.01,293,���k��,5.4,52
2012/1/1,23:00:00,315,�k��,2.3,-3.6,96.9,0,0,0.01,315,�k��,5.1,8
2012/1/1,0:00:00,293,���k��,3.2,-3.6,96.7,0.5,0,0.01,315,�k��,5.8,34
2012/1/2,1:00:00,315,�k��,4,-3.3,96.9,0.5,0,0.01,315,�k��,6.4,15
2012/1/2,2:00:00,315,�k��,3.9,-3,96.6,0.5,0,0.01,315,�k��,6.8,41
2012/1/2,3:00:00,293,���k��,3.8,-2.6,97,1,0,0.01,315,�k��,6.5,20
2012/1/2,4:00:00,293,���k��,2.9,-2.2,96.3,1.5,0,0.01,315,�k��,5.7,14
2012/1/2,5:00:00,315,�k��,2.6,-2.1,93.6,1.5,0,0.01,315,�k��,4.9,17
2012/1/2,6:00:00,338,�k�k��,0.8,-2.2,94.7,1,0,0.01,315,�k��,4.4,6
2012/1/2,7:00:00,338,�k�k��,0.7,-1.8,93.4,0,0,0.01,338,�k�k��,3.7,19
2012/1/2,8:00:00,338,�k�k��,1,-1.9,92.3,0,0,0.02,315,�k��,3.1,47
2012/1/2,9:00:00,23,�k�k��,0.7,-3.2,92.6,0,0,0.06,338,�k�k��,2.8,24
2012/1/2,10:00:00,315,�k��,2.4,-0.7,86.2,0,47,0.16,315,�k��,4.8,57
2012/1/2,11:00:00,315,�k��,3.6,0.8,79.3,0,60,0.3,338,�k�k��,6,59
2012/1/2,12:00:00,338,�k�k��,3.5,1.4,74.7,0,60,0.36,338,�k�k��,6.3,54
2012/1/2,13:00:00,315,�k��,4.1,1.9,70.1,0,60,0.45,315,�k��,7.1,47
2012/1/2,14:00:00,338,�k�k��,2.8,1.9,72.6,0,59,0.37,293,���k��,6.1,12
2012/1/2,15:00:00,360,�k,2.9,1.1,76.8,0,35,0.19,315,�k��,6.3,12
2012/1/2,16:00:00,360,�k,3.9,-0.6,75.9,0,0,0.03,360,�k,7.8,7
2012/1/2,17:00:00,338,�k�k��,3.4,-1.5,75.4,0,0,0.01,315,�k��,6.7,55
2012/1/2,18:00:00,338,�k�k��,2.1,-2.1,72.2,0,0,0.01,270,��,8.3,19
2012/1/2,19:00:00,360,�k,1.4,-3.7,79.4,0,0,0.01,23,�k�k��,6.9,26
2012/1/2,20:00:00,45,�k��,0.9,-6.1,84.5,0,0,0.01,360,�k,2.7,40
2012/1/2,21:00:00,23,�k�k��,1.4,-7.4,90.3,0,0,0.01,315,�k��,2.9,46
2012/1/2,22:00:00,338,�k�k��,4.1,-3.9,76.8,0,0,0.01,360,�k,7.6,49
2012/1/2,23:00:00,338,�k�k��,3,-5.2,76.7,0,0,0.01,360,�k,7.4,2
2012/1/2,0:00:00,360,�k,3.1,-5.5,67.4,0,0,0.01,360,�k,6.3,23
2012/1/3,1:00:00,360,�k,3.7,-5,62.9,0,0,0.01,360,�k,7.7,41
2012/1/3,2:00:00,360,�k,6.5,-4.7,53.8,0,0,0.01,338,�k�k��,11.4,53
2012/1/3,3:00:00,338,�k�k��,5.6,-5.2,53.4,0,0,0.01,338,�k�k��,12.1,17
2012/1/3,4:00:00,360,�k,6.2,-5.6,57.5,0,0,0.01,315,�k��,13.1,34
2012/1/3,5:00:00,360,�k,5.2,-6,58.8,0,0,0,360,�k,13,47
2012/1/3,6:00:00,338,�k�k��,6.6,-5.7,59.6,0,0,0.01,360,�k,14,9
2012/1/3,7:00:00,338,�k�k��,7.3,-5.4,58.1,0,0,0.01,338,�k�k��,15.7,12
2012/1/3,8:00:00,315,�k��,9.8,-4.9,55.3,0,14,0.08,315,�k��,16.8,38
2012/1/3,9:00:00,315,�k��,9,-4.1,49.2,0,60,0.24,293,���k��,17.9,29
2012/1/3,10:00:00,315,�k��,7.1,-3.4,46.5,0,60,0.38,338,�k�k��,16.3,4
2012/1/3,11:00:00,338,�k�k��,7.5,-3,45.6,0,60,0.48,315,�k��,15.1,6
2012/1/3,12:00:00,338,�k�k��,6.8,-2.8,44.2,0,60,0.51,338,�k�k��,12.9,10
2012/1/3,13:00:00,338,�k�k��,8.4,-3.1,48.6,0,60,0.48,338,�k�k��,15.3,51
2012/1/3,14:00:00,338,�k�k��,7.3,-3,48.2,0,60,0.39,338,�k�k��,15.1,9
2012/1/3,15:00:00,338,�k�k��,6.4,-3.6,52.4,0,60,0.25,338,�k�k��,14.4,33
2012/1/3,16:00:00,338,�k�k��,5.8,-4.1,55.2,0,17,0.09,360,�k,15,39
2012/1/3,17:00:00,338,�k�k��,5.8,-4.2,54.5,0,0,0.01,360,�k,12.7,55
2012/1/3,18:00:00,315,�k��,6.8,-4.2,59.3,0,0,0.01,315,�k��,13.6,39
2012/1/3,19:00:00,338,�k�k��,5.4,-5,63.2,0,0,0.01,338,�k�k��,11.9,38
2012/1/3,20:00:00,315,�k��,5.2,-5,56.9,0,0,0.01,315,�k��,11,0
2012/1/3,21:00:00,315,�k��,5.7,-4.8,55.6,0,0,0.01,315,�k��,11.3,33
2012/1/3,22:00:00,315,�k��,6,-4.6,55.8,0,0,0.01,315,�k��,11.7,13
2012/1/3,23:00:00,248,���쐼,3,-7.7,62.3,0,0,0.01,315,�k��,8.9,9
2012/1/3,0:00:00,293,���k��,5.4,-5,53.7,0,0,0.01,293,���k��,9.6,55
2012/1/4,1:00:00,315,�k��,4,-5.1,54.5,0,0,0.01,293,���k��,9.3,0
2012/1/4,2:00:00,293,���k��,4.3,-10.4,66.9,0,0,0.01,270,��,6.9,26
2012/1/4,3:00:00,293,���k��,3.3,-11.8,70.5,0,0,0.01,293,���k��,6.5,9
2012/1/4,4:00:00,293,���k��,1.7,-14.6,69.2,0,0,0.01,293,���k��,4.1,19
2012/1/4,5:00:00,293,���k��,2.8,-14.3,78.8,0,0,0.01,293,���k��,4.7,57
2012/1/4,6:00:00,270,��,2.7,-17.4,83.2,0,0,0.01,293,���k��,3.9,49
2012/1/4,7:00:00,293,���k��,3.1,-14.4,79.9,0,0,0.01,293,���k��,5,59
2012/1/4,8:00:00,315,�k��,1.9,-11.2,69.5,0,15,0.08,293,���k��,4.5,26
2012/1/4,9:00:00,293,���k��,2.3,-12.3,69.2,0,60,0.24,293,���k��,4.3,17
2012/1/4,10:00:00,270,��,1.6,-8.6,60.6,0,60,0.38,270,��,3.7,0
2012/1/4,11:00:00,248,���쐼,2.9,-3.2,48.3,0,60,0.48,225,�쐼,4.2,56
2012/1/4,12:00:00,248,���쐼,2,-2,46.1,0,60,0.51,248,���쐼,4.5,37
2012/1/4,13:00:00,293,���k��,2.5,-1.4,40.4,0,60,0.48,293,���k��,4.6,32
2012/1/4,14:00:00,338,�k�k��,2.1,-1.3,43.9,0,60,0.39,338,�k�k��,5,42
2012/1/4,15:00:00,315,�k��,1.7,-1.9,45.4,0,60,0.25,315,�k��,4.3,59
2012/1/4,16:00:00,270,��,1.4,-4.8,55.9,0,23,0.09,315,�k��,4.4,5
2012/1/4,17:00:00,315,�k��,1,-9.6,60.6,0,0,0.01,270,��,4.1,16
2012/1/4,18:00:00,338,�k�k��,1.4,-11.2,74.2,0,0,0.01,338,�k�k��,2.4,59
2012/1/4,19:00:00,315,�k��,2.3,-14.2,67.9,0,0,0.01,338,�k�k��,3.4,47
2012/1/4,20:00:00,293,���k��,2,-16.9,84.8,0,0,0.01,293,���k��,3,17
2012/1/4,21:00:00,315,�k��,1.2,-13.2,78.6,0,0,0.01,293,���k��,2.8,7
2012/1/4,22:00:00,293,���k��,2.2,-16.1,87.8,0,0,0.01,315,�k��,3.6,23
2012/1/4,23:00:00,293,���k��,2.7,-16.4,91.2,0,0,0.01,270,��,3.9,51
2012/1/4,0:00:00,293,���k��,1.6,-16.1,85.9,0,0,0.01,270,��,4.7,18
2012/1/5,1:00:00,293,���k��,2,-21,84.8,0,0,0.01,293,���k��,3,46
2012/1/5,2:00:00,270,��,2.3,-20.5,82.4,0,0,0.01,270,��,3.2,54
2012/1/5,3:00:00,270,��,2,-15,86.9,0,0,0.01,248,���쐼,4.3,48
2012/1/5,4:00:00,270,��,1.5,-12.4,83.4,0,0,0.01,293,���k��,2.7,21
2012/1/5,5:00:00,158,��쓌,1,-11.8,82.6,0,0,0.01,270,��,3.5,15
2012/1/5,6:00:00,293,���k��,1.4,-10.7,78.3,0,0,0.01,248,���쐼,2.2,16
2012/1/5,7:00:00,293,���k��,1.8,-11.4,79.7,0,0,0.01,270,��,2.5,51
2012/1/5,8:00:00,270,��,1.9,-9.2,73.9,0,0,0.05,270,��,3.3,59
2012/1/5,9:00:00,248,���쐼,1.8,-5.2,63.8,0,48,0.14,270,��,3.6,0
2012/1/5,10:00:00,270,��,2.9,-1.7,56.7,0,60,0.27,293,���k��,4.5,42
2012/1/5,11:00:00,293,���k��,3.8,0.8,48.2,0,60,0.45,315,�k��,7.2,44
2012/1/5,12:00:00,315,�k��,4.7,2.8,44.6,0,60,0.37,315,�k��,8.1,55
2012/1/5,13:00:00,315,�k��,6.1,2,48.9,0,60,0.46,315,�k��,12.7,51
2012/1/5,14:00:00,315,�k��,6.8,2.2,49.2,0,60,0.41,315,�k��,15,31
2012/1/5,15:00:00,315,�k��,6.4,1.5,54.4,0,41,0.24,338,�k�k��,13.6,28
2012/1/5,16:00:00,315,�k��,6.5,1.2,55.9,0,0,0.05,338,�k�k��,14.9,39
2012/1/5,17:00:00,338,�k�k��,4.7,0.9,56.5,0,0,0.01,315,�k��,12.6,0
2012/1/5,18:00:00,315,�k��,4.6,0.7,62.6,0,0,0.01,315,�k��,8.7,52
2012/1/5,19:00:00,315,�k��,5,0.9,61.3,0,0,0.01,315,�k��,9.5,49
2012/1/5,20:00:00,315,�k��,3.2,-0.8,62.8,0,0,0.01,338,�k�k��,8.2,4
2012/1/5,21:00:00,315,�k��,4.1,0.1,58.7,0,0,0.01,315,�k��,7.6,36
2012/1/5,22:00:00,338,�k�k��,3.5,-0.5,57.3,0,0,0.01,338,�k�k��,7.8,41
2012/1/5,23:00:00,338,�k�k��,2.3,-1.3,62.2,0,0,0.01,338,�k�k��,8.2,15
2012/1/5,0:00:00,338,�k�k��,3.5,-1.1,57.8,0,0,0.01,338,�k�k��,7,12
2012/1/6,1:00:00,338,�k�k��,3.6,-1.5,60,0,0,0.01,315,�k��,7.6,1
2012/1/6,2:00:00,315,�k��,3,-2.1,61.6,0,0,0.01,338,�k�k��,7.4,22
2012/1/6,3:00:00,315,�k��,2.7,-2.9,63.4,0,0,0.01,315,�k��,6.3,5
2012/1/6,4:00:00,293,���k��,3.1,-7.3,73.4,0,0,0.01,315,�k��,4.4,32
2012/1/6,5:00:00,293,���k��,2.9,-5.6,74,0,0,0.01,293,���k��,5,23
2012/1/6,6:00:00,270,��,2.9,-8.4,76,0,0,0.01,293,���k��,4,0
2012/1/6,7:00:00,293,���k��,2.7,-10.1,81.5,0,0,0.01,293,���k��,4.3,24
2012/1/6,8:00:00,270,��,2.5,-8.9,77.3,0,17,0.08,315,�k��,5,12
2012/1/6,9:00:00,45,�k��,0.9,-4.6,66.4,0,60,0.24,315,�k��,3.3,44
2012/1/6,10:00:00,315,�k��,1.4,-0.4,53.4,0,60,0.39,315,�k��,2.8,56
2012/1/6,11:00:00,315,�k��,1.8,1.8,47.6,0,60,0.48,315,�k��,3.5,22
2012/1/6,12:00:00,270,��,1.1,0.8,52.4,0,60,0.47,293,���k��,2.8,8
2012/1/6,13:00:00,158,��쓌,1.9,2.1,48.6,0,60,0.49,158,��쓌,3.8,30
2012/1/6,14:00:00,158,��쓌,1.8,2.5,47.9,0,60,0.38,158,��쓌,3.1,25
2012/1/6,15:00:00,180,��,1.3,1.9,52.1,0,54,0.21,158,��쓌,4.2,2
2012/1/6,16:00:00,45,�k��,0.5,-4.6,70.2,0,19,0.08,68,���k��,2.1,25
2012/1/6,17:00:00,293,���k��,1.7,-7.8,89.1,0,0,0.01,315,�k��,2.2,50
2012/1/6,18:00:00,315,�k��,1.5,-4.4,80.9,0,0,0.01,293,���k��,2.3,38
2012/1/6,19:00:00,293,���k��,1.2,-5.3,84.7,0,0,0.01,270,��,3.2,5
2012/1/6,20:00:00,293,���k��,1.8,-4.3,84.4,0,0,0.01,315,�k��,2.8,59
2012/1/6,21:00:00,315,�k��,2,-1.9,79,0,0,0.01,315,�k��,2.9,56
2012/1/6,22:00:00,293,���k��,0.5,-3.8,86.9,0,0,0.01,315,�k��,2.9,6
2012/1/6,23:00:00,315,�k��,1.7,-2.6,82.9,0,0,0.01,338,�k�k��,2.7,54
2012/1/6,0:00:00,315,�k��,1.9,-2.5,95.7,0,0,0.01,315,�k��,3.6,58
2012/1/7,1:00:00,315,�k��,4,-2.1,97.3,1,0,0.01,293,���k��,6.4,52
2012/1/7,2:00:00,315,�k��,3.7,-2,97.1,1,0,0.01,315,�k��,6.4,41
2012/1/7,3:00:00,315,�k��,2.5,-2,90.3,0,0,0.01,315,�k��,6.2,28
2012/1/7,4:00:00,315,�k��,1.9,-4.4,91.9,0,0,0.01,315,�k��,4.4,10
2012/1/7,5:00:00,315,�k��,1.4,-5.4,92.4,0,0,0.01,315,�k��,2.4,56
2012/1/7,6:00:00,315,�k��,2.8,-4.7,88.8,0,0,0.01,315,�k��,4.3,47
2012/1/7,7:00:00,293,���k��,2.4,-7.3,94.7,0,0,0.01,315,�k��,3.8,1
2012/1/7,8:00:00,293,���k��,4.9,-4.4,80.4,0,3,0.06,315,�k��,7,51
2012/1/7,9:00:00,315,�k��,2.3,-3.8,72.1,0,47,0.19,315,�k��,6.3,6
2012/1/7,10:00:00,315,�k��,2.4,-2.5,65.6,0,60,0.35,293,���k��,4.1,40
2012/1/7,11:00:00,315,�k��,2.8,-0.3,55.7,0,60,0.48,315,�k��,4.9,7
2012/1/7,12:00:00,315,�k��,3.4,0.6,52.1,0,60,0.51,315,�k��,5.9,48
2012/1/7,13:00:00,338,�k�k��,4.4,0.7,49.7,0,60,0.47,338,�k�k��,8.1,50
2012/1/7,14:00:00,315,�k��,3.3,0.8,47.6,0,60,0.39,293,���k��,6.8,1
2012/1/7,15:00:00,338,�k�k��,2.5,-0.2,50.8,0,55,0.24,315,�k��,5,6
2012/1/7,16:00:00,338,�k�k��,2.3,-0.9,55.5,0,20,0.09,360,�k,5,28
2012/1/7,17:00:00,360,�k,0.9,-2.7,66.3,0,0,0.01,360,�k,5.2,28
2012/1/7,18:00:00,23,�k�k��,2.2,-3.2,70.5,0,0,0.01,23,�k�k��,5.1,20
2012/1/7,19:00:00,293,���k��,1.7,-7.8,80.5,0,0,0.01,45,�k��,2.7,1
2012/1/7,20:00:00,293,���k��,1.9,-8.6,85,0,0,0.01,315,�k��,3,47
2012/1/7,21:00:00,293,���k��,0.7,-10.3,90.9,0,0,0.01,315,�k��,2.4,1
2012/1/7,22:00:00,293,���k��,2,-11.2,91.3,0,0,0.01,270,��,2.9,19
2012/1/7,23:00:00,315,�k��,2.1,-10,93.8,0,0,0.01,315,�k��,2.9,2
2012/1/7,0:00:00,293,���k��,2.9,-12,95.7,0,0,0.01,293,���k��,3.9,55
2012/1/8,1:00:00,315,�k��,1.3,-13.4,85,0,0,0.01,315,�k��,4.6,8
2012/1/8,2:00:00,315,�k��,1.6,-14.8,91.5,0,0,0.01,293,���k��,3.2,20
2012/1/8,3:00:00,315,�k��,2.7,-14.7,91.8,0,0,0.01,315,�k��,4.1,15
2012/1/8,4:00:00,293,���k��,2.6,-14.1,92.2,0,0,0.01,270,��,3.8,56
2012/1/8,5:00:00,293,���k��,2.8,-13.6,92.4,0,0,0.01,315,�k��,5.2,26
2012/1/8,6:00:00,293,���k��,2.9,-13.4,92.6,0,0,0.01,270,��,4.1,58
2012/1/8,7:00:00,293,���k��,2.2,-14.3,90.7,0,0,0.01,315,�k��,5.1,0
2012/1/8,8:00:00,315,�k��,2.3,-10.2,97.3,0,8,0.07,270,��,3.6,14
2012/1/8,9:00:00,315,�k��,2.2,-7.6,77,0,60,0.22,293,���k��,4.4,27
2012/1/8,10:00:00,315,�k��,2.6,-5.4,69.7,0,60,0.38,315,�k��,4.7,32
2012/1/8,11:00:00,338,�k�k��,0.4,-4.7,71,0,60,0.48,315,�k��,4.3,4
2012/1/8,12:00:00,180,��,0.6,-1.7,63.8,0,60,0.51,158,��쓌,1.4,59
2012/1/8,13:00:00,135,�쓌,1.6,-1.8,65.5,0,60,0.48,135,�쓌,3,37
2012/1/8,14:00:00,158,��쓌,2.2,-1.7,70.8,0,60,0.39,158,��쓌,4,51
2012/1/8,15:00:00,180,��,2,-1.4,76.7,0,58,0.24,158,��쓌,3.7,7
2012/1/8,16:00:00,23,�k�k��,1.2,-2.9,86.6,0,0,0.06,180,��,2.8,0
2012/1/8,17:00:00,293,���k��,1.6,-10,95.5,0,0,0.01,23,�k�k��,2.4,22
2012/1/8,18:00:00,315,�k��,2.2,-8.2,95.4,0,0,0.01,315,�k��,3.2,43
2012/1/8,19:00:00,270,��,1.8,-8.3,95.1,0,0,0.01,293,���k��,2.7,42
2012/1/8,20:00:00,315,�k��,1.7,-9.2,96.1,0,0,0.01,270,��,3.4,10
2012/1/8,21:00:00,270,��,1.7,-10.1,93.2,0,0,0.01,315,�k��,3.9,33
2012/1/8,22:00:00,315,�k��,1.9,-11.5,94.5,0,0,0.01,270,��,3.3,28
2012/1/8,23:00:00,293,���k��,2.4,-11.9,92.7,0,0,0.01,293,���k��,4,14
2012/1/8,0:00:00,293,���k��,1.7,-12,92.2,0,0,0.01,293,���k��,4.5,27
2012/1/9,1:00:00,270,��,2.2,-11.7,92.7,0,0,0.01,293,���k��,4.1,19
2012/1/9,2:00:00,293,���k��,1.8,-13.7,92,0,0,0.01,315,�k��,5.2,8
2012/1/9,3:00:00,293,���k��,3.1,-15.3,89,0,0,0.01,270,��,5.9,38
2012/1/9,4:00:00,270,��,2.5,-16.1,89.6,0,0,0.01,293,���k��,3.8,2
2012/1/9,5:00:00,315,�k��,2.5,-14.7,91.1,0,0,0.01,270,��,4.3,40
2012/1/9,6:00:00,315,�k��,2.8,-15.2,89.7,0,0,0.01,293,���k��,3.9,6
2012/1/9,7:00:00,293,���k��,2.6,-15.3,89.9,0,0,0.01,293,���k��,4,34
2012/1/9,8:00:00,293,���k��,2.5,-14.5,90.9,0,0,0.05,293,���k��,3.8,36
2012/1/9,9:00:00,293,���k��,2.1,-11.6,93.8,0,59,0.21,315,�k��,3.6,42
2012/1/9,10:00:00,270,��,1.2,-8.6,81.8,0,60,0.37,270,��,3.4,20
2012/1/9,11:00:00,113,���쓌,1.2,-1.6,59.5,0,60,0.48,23,�k�k��,3.4,39
2012/1/9,12:00:00,248,���쐼,0.8,-0.2,39.2,0,60,0.52,203,��쐼,3.2,38
2012/1/9,13:00:00,225,�쐼,1.9,-0.8,41.2,0,60,0.49,225,�쐼,3.4,57
2012/1/9,14:00:00,225,�쐼,1.2,-0.6,41.6,0,60,0.4,225,�쐼,3.8,18
2012/1/9,15:00:00,270,�É�,0.2,-1.2,45.4,0,60,0.27,225,�쐼,2.5,27
2012/1/9,16:00:00,23,�k�k��,2,-3.7,69.1,0,23,0.09,23,�k�k��,3.4,24
2012/1/9,17:00:00,270,��,1.2,-9.9,81.6,0,0,0.01,23,�k�k��,2.7,0
2012/1/9,18:00:00,315,�k��,2,-11.2,75.4,0,0,0.01,315,�k��,2.5,58
2012/1/9,19:00:00,293,���k��,2.5,-11.6,78.7,0,0,0.01,315,�k��,3.4,30
2012/1/9,20:00:00,293,���k��,3.2,-8.7,86.4,0,0,0.01,315,�k��,4.4,55
2012/1/9,21:00:00,315,�k��,2.9,-14,83.5,0,0,0.01,315,�k��,4.4,51
2012/1/9,22:00:00,293,���k��,2.8,-13.6,87,0,0,0.01,315,�k��,5,12
2012/1/9,23:00:00,293,���k��,1.5,-14,88.3,0,0,0.01,293,���k��,4.8,16
2012/1/9,0:00:00,315,�k��,1.2,-14.8,82.8,0,0,0.01,293,���k��,2.7,13
2012/1/10,1:00:00,248,���쐼,1.5,-14.7,90.3,0,0,0.01,270,��,8.2,38
2012/1/10,2:00:00,293,���k��,3.1,-14.8,91.5,0,0,0.01,293,���k��,4,47
2012/1/10,3:00:00,293,���k��,3.3,-14.7,89.8,0,0,0.01,315,�k��,5.1,39
2012/1/10,4:00:00,293,���k��,3.1,-12.9,87.2,0,0,0.01,315,�k��,6,8
2012/1/10,5:00:00,293,���k��,2,-13.8,92.1,0,0,0.01,293,���k��,4.3,0
2012/1/10,6:00:00,293,���k��,1.6,-13.8,91.1,0,0,0.01,315,�k��,3.6,15
2012/1/10,7:00:00,315,�k��,1.8,-11.7,96.3,0,0,0.01,293,���k��,3.6,38
2012/1/10,8:00:00,315,�k��,2.4,-10.4,84,0,10,0.07,338,�k�k��,4.5,44
2012/1/10,9:00:00,315,�k��,2.7,-8.2,77.2,0,54,0.19,293,���k��,4.4,30
2012/1/10,10:00:00,315,�k��,2.5,-5.6,68.6,0,60,0.4,338,�k�k��,4.9,17
2012/1/10,11:00:00,293,���k��,1.2,-5.2,68.3,0,60,0.46,315,�k��,3.5,8
2012/1/10,12:00:00,68,���k��,0.7,-2,71,0,60,0.52,135,�쓌,1.4,53
2012/1/10,13:00:00,113,���쓌,2.5,-3.2,72.7,0,60,0.48,113,���쓌,3.5,57
2012/1/10,14:00:00,113,���쓌,1.7,-3.7,77.5,0,58,0.39,68,���k��,3.5,31
2012/1/10,15:00:00,90,��,1.8,-5.9,87.5,0,32,0.16,90,��,3.3,5
2012/1/10,16:00:00,360,�k,1.2,-9.8,89.1,0,20,0.09,68,���k��,1.9,0
2012/1/10,17:00:00,293,���k��,1.1,-13.4,89.7,0,0,0.01,315,�k��,1.8,21
2012/1/10,18:00:00,315,�k��,2.1,-11.4,93.5,0,0,0.01,270,��,3.3,40
2012/1/10,19:00:00,270,��,3,-13.4,90.3,0,0,0.01,270,��,4,30
2012/1/10,20:00:00,293,���k��,3.3,-15.1,88.8,0,0,0.01,293,���k��,4.1,55
2012/1/10,21:00:00,293,���k��,2.8,-14.7,90.1,0,0,0.01,270,��,6.2,59
2012/1/10,22:00:00,293,���k��,3.5,-14.3,91.2,0,0,0.01,315,�k��,5.5,58
2012/1/10,23:00:00,248,���쐼,1.5,-14.1,90.4,0,0,0.01,338,�k�k��,7.3,44
2012/1/10,0:00:00,315,�k��,1.8,-16.6,88.4,0,0,0.01,270,��,3.5,39
2012/1/11,1:00:00,293,���k��,2.5,-15.5,88.8,0,0,0.01,270,��,5,23
2012/1/11,2:00:00,293,���k��,2.1,-16.6,88.6,0,0,0.01,315,�k��,5,3
2012/1/11,3:00:00,315,�k��,1,-18.2,84.4,0,0,0.01,270,��,4.1,30
2012/1/11,4:00:00,293,���k��,2,-19.5,85.8,0,0,0.01,270,��,4,5
2012/1/11,5:00:00,270,��,2.1,-19.3,85.7,0,0,0.01,293,���k��,4.6,40
2012/1/11,6:00:00,293,���k��,2.3,-20.5,85.7,0,0,0.01,270,��,3.5,7
2012/1/11,7:00:00,293,���k��,2,-19,85.7,0,0,0.01,293,���k��,4.6,2
2012/1/11,8:00:00,293,���k��,1.1,-19.5,86.2,0,15,0.08,360,�k,7.4,48
2012/1/11,9:00:00,293,���k��,2.5,-15.5,90.6,0,60,0.25,270,��,4.5,28
2012/1/11,10:00:00,293,���k��,1.8,-11.7,92.9,0,60,0.39,270,��,3.4,42
2012/1/11,11:00:00,270,��,2.4,-5.5,52,0,60,0.48,248,���쐼,3.9,56
2012/1/11,12:00:00,270,��,4.5,-4.8,44.6,0,60,0.53,248,���쐼,7.6,27
2012/1/11,13:00:00,315,�k��,3,-4.5,35.9,0,60,0.52,248,���쐼,7.3,12
2012/1/11,14:00:00,315,�k��,4.2,-5,36.1,0,59,0.42,315,�k��,7.7,51
2012/1/11,15:00:00,270,��,4.1,-6.3,44.8,0,60,0.29,293,���k��,6,37
2012/1/11,16:00:00,315,�k��,4.1,-7.3,64.6,0,36,0.12,270,��,7.7,23
2012/1/11,17:00:00,315,�k��,2.8,-8.8,70.4,0,0,0.01,338,�k�k��,6.8,22
2012/1/11,18:00:00,293,���k��,3.1,-13.1,82.4,0,0,0.01,270,��,3.9,54
2012/1/11,19:00:00,338,�k�k��,3.4,-9.9,80.2,0,0,0.01,315,�k��,5.3,56
2012/1/11,20:00:00,293,���k��,6,-10.4,55.3,0,0,0.01,315,�k��,8.7,59
2012/1/11,21:00:00,315,�k��,3.5,-10.4,43.5,0,0,0.01,293,���k��,7.9,10
2012/1/11,22:00:00,338,�k�k��,3,-12,79,0,0,0.01,338,�k�k��,8.2,12
2012/1/11,23:00:00,315,�k��,3.3,-12.6,62.4,0,0,0.01,338,�k�k��,7,3
2012/1/11,0:00:00,338,�k�k��,3.4,-12.6,59.9,0,0,0.01,315,�k��,6.9,57
2012/1/12,1:00:00,338,�k�k��,4.6,-11.9,53.2,0,0,0.01,315,�k��,9.3,59
2012/1/12,2:00:00,270,��,4.4,-16.3,61.7,0,0,0.01,315,�k��,9.6,3
2012/1/12,3:00:00,293,���k��,1.6,-19.4,62.4,0,0,0.01,293,���k��,5.8,7
2012/1/12,4:00:00,293,���k��,2.1,-20.1,74.8,0,0,0.01,293,���k��,4,7
2012/1/12,5:00:00,293,���k��,3.3,-21.1,73.9,0,0,0.01,293,���k��,4.5,56
2012/1/12,6:00:00,293,���k��,3.9,-20.9,71.8,0,0,0.01,293,���k��,5.4,41
2012/1/12,7:00:00,293,���k��,2.8,-21.5,74.1,0,0,0.01,293,���k��,4.6,2
2012/1/12,8:00:00,293,���k��,3.4,-21,67.7,0,17,0.08,270,��,4.8,2
2012/1/12,9:00:00,293,���k��,2.5,-17.6,64.2,0,60,0.25,293,���k��,4.1,24
2012/1/12,10:00:00,293,���k��,1.5,-12.7,60.2,0,60,0.4,270,��,4.4,28
2012/1/12,11:00:00,45,�k��,0.3,-4,38.9,0,60,0.5,315,�k��,2.2,2
2012/1/12,12:00:00,225,�É�,0.2,-4.7,30.1,0,60,0.52,270,��,1.3,50
2012/1/12,13:00:00,293,���k��,1.1,-4.1,32.1,0,60,0.5,315,�k��,4.1,59
2012/1/12,14:00:00,270,��,6.1,-4.9,39.1,0,59,0.41,270,��,9.8,56
2012/1/12,15:00:00,270,��,2,-7.4,46.5,0,60,0.28,270,��,10.1,5
2012/1/12,16:00:00,248,���쐼,1.6,-10.6,51.2,0,28,0.09,248,���쐼,3.9,34
2012/1/12,17:00:00,248,���쐼,1,-15.9,66.7,0,0,0.01,248,���쐼,2.1,4
2012/1/12,18:00:00,270,��,2.4,-16.8,73.8,0,0,0.01,293,���k��,4.4,59
2012/1/12,19:00:00,293,���k��,2.8,-15.9,72.1,0,0,0.01,270,��,4.1,13
2012/1/12,20:00:00,270,��,3.5,-18.9,76.6,0,0,0.01,293,���k��,4.6,28
2012/1/12,21:00:00,293,���k��,0.9,-20.3,79.6,0,0,0.01,293,���k��,4,0
2012/1/12,22:00:00,315,�k��,2.1,-18.7,75.3,0,0,0.01,315,�k��,3.9,48
2012/1/12,23:00:00,293,���k��,2.3,-19.5,79.4,0,0,0.01,293,���k��,4,25
2012/1/12,0:00:00,293,���k��,2.5,-19.4,79.4,0,0,0.01,270,��,4.6,30
2012/1/13,1:00:00,293,���k��,2.7,-19,78.5,0,0,0.01,270,��,4.5,17
2012/1/13,2:00:00,293,���k��,2.5,-19.9,77.5,0,0,0.01,270,��,4.3,47
2012/1/13,3:00:00,293,���k��,1.9,-18.3,78,0,0,0.01,270,��,4.7,13
2012/1/13,4:00:00,293,���k��,1.9,-21,80.6,0,0,0.01,270,��,3.6,40
2012/1/13,5:00:00,293,���k��,2.1,-20.5,79.8,0,0,0.01,270,��,4.2,21
2012/1/13,6:00:00,293,���k��,2.5,-20.7,78.1,0,0,0.01,270,��,6.2,47
2012/1/13,7:00:00,293,���k��,1.3,-19.7,81.7,0,0,0.01,270,��,4.7,15
2012/1/13,8:00:00,293,���k��,3.1,-19.3,76.9,0,15,0.08,270,��,4.9,47
2012/1/13,9:00:00,315,�k��,1.1,-15.4,71.7,0,60,0.24,293,���k��,4,18
2012/1/13,10:00:00,270,�É�,0.2,-13.1,70.1,0,60,0.39,293,���k��,3.7,2
2012/1/13,11:00:00,45,�k��,1.6,-5.6,68.4,0,60,0.48,45,�k��,2.4,43
2012/1/13,12:00:00,45,�k��,1.8,-4.9,74.1,0,60,0.52,45,�k��,3,58
2012/1/13,13:00:00,45,�k��,2.3,-4.1,71.7,0,60,0.5,68,���k��,3.6,2
2012/1/13,14:00:00,90,��,1.1,-3.6,70.6,0,60,0.4,45,�k��,3,9
2012/1/13,15:00:00,45,�k��,1.3,-5.7,73.5,0,41,0.18,68,���k��,3.7,27
2012/1/13,16:00:00,338,�k�k��,0.4,-10.4,86.9,0,3,0.05,45,�k��,2.2,3
2012/1/13,17:00:00,270,��,1.9,-13.1,79.6,0,0,0.01,248,���쐼,2.7,51
2012/1/13,18:00:00,270,��,2.4,-17.7,77.8,0,0,0.01,270,��,3.8,30
2012/1/13,19:00:00,293,���k��,3,-17.6,83.5,0,0,0.01,293,���k��,3.6,51
2012/1/13,20:00:00,293,���k��,2.1,-16.2,87.7,0,0,0.01,270,��,3.8,14
2012/1/13,21:00:00,270,��,2.2,-19.5,85.1,0,0,0.01,270,��,3,51
2012/1/13,22:00:00,293,���k��,2.7,-17.9,89.5,0,0,0.01,270,��,5.1,59
2012/1/13,23:00:00,293,���k��,2.7,-19,82.5,0,0,0.01,315,�k��,5.2,51
2012/1/13,0:00:00,315,�k��,2.8,-19.2,85.9,0,0,0.01,293,���k��,5,22
2012/1/14,1:00:00,293,���k��,2.9,-19.9,84.7,0,0,0.01,293,���k��,4.1,53
2012/1/14,2:00:00,293,���k��,2.7,-20.2,82.7,0,0,0.01,293,���k��,4.6,32
2012/1/14,3:00:00,293,���k��,2.9,-17.3,83.3,0,0,0.01,293,���k��,5,38
2012/1/14,4:00:00,315,�k��,2.9,-13.4,81.3,0,0,0.01,293,���k��,4.6,11
2012/1/14,5:00:00,315,�k��,3.5,-13.1,81.8,0,0,0.01,315,�k��,5.1,59
2012/1/14,6:00:00,293,���k��,4.5,-12,51.7,0,0,0.01,293,���k��,6.7,58
2012/1/14,7:00:00,270,��,6,-11.3,42,0,0,0.01,270,��,9.7,19
2012/1/14,8:00:00,315,�k��,1,-13.9,36.9,0,13,0.08,270,��,7.9,0
2012/1/14,9:00:00,293,���k��,4.7,-12.6,45.9,0,60,0.24,293,���k��,6.1,58
2012/1/14,10:00:00,293,���k��,4.3,-9.1,39.1,0,60,0.39,270,��,7.5,58
2012/1/14,11:00:00,270,��,5.2,-8.4,35.6,0,60,0.5,248,���쐼,7.8,0
2012/1/14,12:00:00,270,��,3.5,-7.7,37.3,0,60,0.54,293,���k��,7.5,14
2012/1/14,13:00:00,293,���k��,3.5,-7.1,29.5,0,60,0.52,248,���쐼,7.9,7
2012/1/14,14:00:00,338,�k�k��,1.5,-7.6,36.2,0,57,0.39,293,���k��,5.8,0
2012/1/14,15:00:00,338,�k�k��,1.8,-7.7,40.1,0,60,0.28,360,�k,4.8,41
2012/1/14,16:00:00,293,���k��,1,-13.3,55.4,0,29,0.11,338,�k�k��,3.7,9
2012/1/14,17:00:00,248,���쐼,2.5,-17.8,69.2,0,0,0.01,248,���쐼,3.3,58
2012/1/14,18:00:00,45,�k��,2.1,-13.7,59.4,0,0,0.01,270,��,4.7,37
2012/1/14,19:00:00,293,���k��,1.5,-19.3,64.6,0,0,0.01,270,��,2.5,45
2012/1/14,20:00:00,270,��,1.6,-20.7,63.9,0,0,0.01,248,���쐼,2.6,45
2012/1/14,21:00:00,293,���k��,1.6,-23.4,77.1,0,0,0.01,270,��,3.2,9
2012/1/14,22:00:00,293,���k��,2,-19.4,80.1,0,0,0.01,270,��,5.1,43
2012/1/14,23:00:00,293,���k��,2.7,-22.6,79.5,0,0,0.01,293,���k��,5.1,15
2012/1/14,0:00:00,315,�k��,0.6,-24.7,76.4,0,0,0.01,293,���k��,4.5,6
2012/1/15,1:00:00,293,���k��,2.4,-23.8,78.3,0,0,0.01,270,��,3.8,34
2012/1/15,2:00:00,293,���k��,1.5,-23.7,77.7,0,0,0.01,293,���k��,4,25
2012/1/15,3:00:00,338,�k�k��,1,-22.5,79.1,0,0,0.01,315,�k��,2.5,45
2012/1/15,4:00:00,248,���쐼,2.5,-17.1,69.6,0,0,0.01,225,�쐼,4.5,50
2012/1/15,5:00:00,293,���k��,2.5,-19.9,84.8,0,0,0.01,293,���k��,4.1,25
2012/1/15,6:00:00,270,��,3,-23.6,78,0,0,0.01,293,���k��,5.4,35
2012/1/15,7:00:00,293,���k��,2.7,-23.2,81.5,0,0,0.01,270,��,4.1,26
2012/1/15,8:00:00,338,�k�k��,0.5,-21.4,69.9,0,19,0.09,270,��,5.5,10
2012/1/15,9:00:00,270,��,1.6,-16.8,66.8,0,60,0.25,293,���k��,3.7,47
2012/1/15,10:00:00,248,���쐼,1.4,-7.6,52.2,0,60,0.41,248,���쐼,4.3,45
2012/1/15,11:00:00,293,���k��,2.6,-5.4,35,0,60,0.51,293,���k��,4.1,58
2012/1/15,12:00:00,248,���쐼,0.3,-4.2,31.6,0,60,0.55,293,���k��,3.6,3
2012/1/15,13:00:00,338,�k�k��,3.1,-4.1,33.1,0,60,0.52,338,�k�k��,5.2,58
2012/1/15,14:00:00,360,�k,2.4,-4.2,39.3,0,60,0.43,338,�k�k��,5.5,15
2012/1/15,15:00:00,338,�k�k��,3,-4.5,36.1,0,60,0.29,338,�k�k��,5.6,53
2012/1/15,16:00:00,315,�k��,2,-6.9,44.3,0,30,0.12,315,�k��,6,9